CZ-6A DEB, 54634

Orbit data source: Space-Track

CZ-6A DEB, 54634 is space debris in SSO originally from a launch on Fri, 11 Nov 2022 UTC launched from the Taiyaun Space Center, China (TSC). Debris objects in space refer to the collection of defunct objects orbiting the Earth. Examples of debris include non-operational satellites, rocket bodies, and fragments generated from explosions, collisions, or faulty payload assembly.

Loading next visibility...
Identifier
54634, 2022-151PL
Orbit
SSO
Country
Flag of CNCN / PRC
Related business
Manufacturer
SAST
Mission
Spacecraft
Bus & Motor
Unknown
Mass
Unknown
Launch date (UTC)
2022-11-11 (4 years ago)
Launch vehicle
Unknown
Launch site
Taiyaun Space Center, China (TSC)
Object type
Payload
Rocket body
Debris
Shape & HBR
Unknown shape, 0.1 m
Radar Cross Section
Medium (>0.1 m² and <1 m²)

Expand to show TLE details & history
Last TLE update: 2 days ago

TLE from 2 days ago
0 CZ-6A DEB
1 54634U 22151PL  26170.99906792  .00004485  00000-0  16358-2 0  9996
2 54634  98.7740 189.5315 0028491 270.6727  89.1193 14.33354246185589
Epoch: 2026-06-19T23:58Z
TLE epoch observation values (Epoch: 2026-06-19T23:58:39.468Z)
Latitude
0.00008°
Longitude
-78.35296°
Altitude
783.216 km
Speed
7.462 km/s
True Right ascension
12h 38m 07s
True Declination
0° 00' 00"
Sunlit
Object was in daylight at epoch
Visualization orbit readout
Latitude
Unknown
Longitude
Unknown
Altitude
Unknown
Speed
Unknown
Apparent Right ascension
Unknown
Apparent Declination
Unknown
Sunlit
N/A
Visualization observer readout
Local Sidereal Time
21:56:58
Azimuth
Unknown
Elevation
Unknown
Doppler factor
Unknown
Orbital elements
Apogee altitude
798.072 km
Perigee altitude
757.297 km
Semi-major axis
7,155.822 km
Eccentricity
0.00285
Inclination
98.774°
RAAN
189.5315°
Arg. of periapsis
270.6727°
True anomaly
89.44576°
Mean anomaly
89.1193°
Eccentric anomaly
89.28253°
Mean motion
3.58553 °/min
Orbital period
100.4 mins
BSTAR
0.0016358
Loading maneuver chart data...
Computing Atmospheric mass density...
Loading historical data...
Loading historical data...
Loading historical data...
Loading historical data...
Loading historical data...
Loading historical data...
Loading historical data...

Documentation

Showing up to 5 results
|